Weather History for Olathe New Century, KS

Change the Weather History Date:

Thursday, February 6, 2014

  Actual Average Record
Temperature  
Mean Temperature 2 °F -  
Max Temperature 8 °F 40 °F 66 °F (2009)
Min Temperature -5 °F 22 °F -5 °F (2014)
Degree Days  
Heating Degree Days 64    
Moisture  
Dew Point -7 °F    
Average Humidity 66    
Maximum Humidity 80    
Minimum Humidity 53    
Precipitation  
Precipitation 0.00 in - - ()
Sea Level Pressure  
Sea Level Pressure 30.64 in    
Wind  
Wind Speed 6 mph (WNW)    
Max Wind Speed 9 mph    
Max Gust Speed -    
Visibility 10 miles    
Events      
Averages and records for this station are not official NWS values.
T = Trace of Precipitation, MM = Missing Value Source: NWS Daily Summary

Daily Weather History Graph

Daily Weather History Graph

Search for Another Location

Airport:

Trip Planner

Search our weather history database for the weather conditions in past years. The results will help you decide how hot, cold, wet, or windy it might be!

Date:

Astronomy

Feb. 06, 2014 Rise Set
Actual Time 7:20 AM CST 5:46 PM CST
Civil Twilight 6:53 AM CST 6:14 PM CST
Nautical Twilight 6:21 AM CST 6:46 PM CST
Astronomical Twilight 5:50 AM CST 7:17 PM CST
Moon 11:19 AM CST (2/6) 12:37 AM CST (2/6)
Length of Visible Light 11h 21m
Length of Day
10h 26m
Waxing Crescent, 49% of the Moon is Illuminated
Feb 6
Waxing Crescent
Feb 6
First Quarter
Feb 14
Full
Feb 22
Last Quarter
Mar 1
New

Hourly Weather History & Observations

Time (CST) Temp. Windchill Dew Point Humidity Pressure Visibility Wind Dir Wind Speed Gust Speed Precip Events Conditions
12:53 AM -0.9 °F -12.7 °F -7.1 °F 75% 30.70 in 10.0 mi NW 5.8 mph - N/A   Clear
1:53 AM -0.9 °F -16.4 °F -7.1 °F 75% 30.71 in 10.0 mi NW 9.2 mph - N/A   Partly Cloudy
2:53 AM -2.0 °F -15.4 °F -8.0 °F 76% 30.70 in 10.0 mi NW 6.9 mph - N/A   Partly Cloudy
3:53 AM -2.0 °F -15.4 °F -8.0 °F 76% 30.70 in 10.0 mi NW 6.9 mph - N/A   Overcast
4:53 AM -2.9 °F -16.5 °F -9.0 °F 75% 30.70 in 10.0 mi WNW 6.9 mph - N/A   Clear
5:53 AM -2.9 °F -15.0 °F -9.0 °F 75% 30.71 in 10.0 mi WNW 5.8 mph - N/A   Clear
6:53 AM -4.0 °F -16.3 °F -9.9 °F 76% 30.71 in 10.0 mi WNW 5.8 mph - N/A   Clear
7:53 AM -5.1 °F -17.6 °F -9.9 °F 80% 30.72 in 10.0 mi WNW 5.8 mph - N/A   Clear
8:53 AM -2.0 °F -16.6 °F -8.0 °F 76% 30.72 in 10.0 mi NW 8.1 mph - N/A   Clear
9:53 AM -0.0 °F -11.6 °F -8.0 °F 69% 30.72 in 10.0 mi NW 5.8 mph - N/A   Clear
10:53 AM 3.9 °F -3.4 °F -5.1 °F 66% 30.70 in 10.0 mi North 3.5 mph - N/A   Clear
11:53 AM 5.0 °F -8.1 °F -5.1 °F 63% 30.68 in 10.0 mi West 8.1 mph - 0.00 in   Partly Cloudy
12:53 PM 6.1 °F -6.8 °F -4.0 °F 63% 30.65 in 10.0 mi West 8.1 mph - N/A   Overcast
1:53 PM 7.0 °F -4.5 °F -5.1 °F 58% 30.63 in 10.0 mi West 6.9 mph - N/A   Overcast
2:53 PM 8.1 °F -5.3 °F -5.1 °F 55% 30.61 in 10.0 mi WNW 9.2 mph - N/A   Overcast
3:53 PM 8.1 °F -2.0 °F -5.1 °F 55% 30.58 in 10.0 mi West 5.8 mph - N/A   Overcast
4:53 PM 8.1 °F -2.0 °F -6.0 °F 53% 30.58 in 10.0 mi WNW 5.8 mph - N/A   Overcast
5:53 PM 7.0 °F -1.7 °F -6.0 °F 55% 30.57 in 10.0 mi WNW 4.6 mph - N/A   Overcast
6:53 PM 3.9 °F - -7.1 °F 60% 30.56 in 10.0 mi Calm Calm - N/A   Scattered Clouds
7:53 PM 1.9 °F - -7.1 °F 66% 30.57 in 10.0 mi Calm Calm - N/A   Mostly Cloudy
8:53 PM 5.0 °F -2.1 °F -5.1 °F 63% 30.57 in 10.0 mi West 3.5 mph - N/A   Overcast
9:53 PM 5.0 °F -4.1 °F -5.1 °F 63% 30.56 in 10.0 mi WNW 4.6 mph - N/A   Overcast
10:53 PM 6.1 °F -2.8 °F -5.1 °F 60% 30.55 in 10.0 mi West 4.6 mph - N/A   Overcast
11:53 PM 5.0 °F -4.1 °F -5.1 °F 63% 30.52 in 10.0 mi WNW 4.6 mph - N/A   Overcast